Regional Weather Roundup
Issued by NWS Charleston, WV

Home | Current Version | Previous Version | Graphics & Text | Print | Product List | Glossary On
Versions: 1 2 3 4 5 6 7 8 9 10 11 12 13 14 15 16 17 18 19 20 21 22 23 24 25 26 27 28 29 30 31 32 33 34 35 36 37 38 39 40 41 42 43 44 45 46
000
ASUS41 KRLX 240510
RWRRLX
West Virginia Regional Weather Roundup
National Weather Service Charleston WV
1200 AM EST FRI FEB 24 2017

Note: "fair" indicates few or no clouds below 12,000 feet with no
significant weather and/or obstructions to visibility.

WVZ003-240600-
Northern Panhandle of West Virginia

CITY           SKY/WX    TMP DP  RH WIND       PRES   REMARKS
WHEELING       CLOUDY    60  51  72 S9        29.81F
$$

WVZ009-240600-
Northwest West Virginia

CITY           SKY/WX    TMP DP  RH WIND       PRES   REMARKS
PARKERSBURG    CLOUDY    63  53  70 S6        29.84S
$$

WVZ006-240600-
Western West Virginia

CITY           SKY/WX    TMP DP  RH WIND       PRES   REMARKS
HUNTINGTON     PTCLDY    53  52  96 E3        29.81S
$$

WVZ015-240600-
West Central West Virginia

CITY           SKY/WX    TMP DP  RH WIND       PRES   REMARKS
CHARLESTON     PTCLDY    51  50  96 CALM      29.82F
$$

WVZ022-031-240600-
North Central West Virginia

CITY           SKY/WX    TMP DP  RH WIND       PRES   REMARKS
CLARKSBURG     MOCLDY    56  51  84 SE5       29.85S
MORGANTOWN     CLOUDY    62  51  67 S3        29.85F
$$

WVZ025-035-042-045-240600-
Southern West Virginia

CITY           SKY/WX    TMP DP  RH WIND       PRES   REMARKS
BECKLEY        CLEAR     55  48  77 SE7       29.90R
LOGAN            N/A     61  52  72 S8        29.84F
BLUEFIELD      CLEAR     57  47  69 S9        29.92S
LEWISBURG      CLEAR     46  44  95 CALM      29.93R
$$

WVZ047-240600-
Northern Mountains of West Virginia

CITY           SKY/WX    TMP DP  RH WIND       PRES   REMARKS
ELKINS         PTCLDY    45  41  86 CALM      29.90S
$$

WVZ052-240600-
Eastern Panhandle of West Virginia

CITY           SKY/WX    TMP DP  RH WIND       PRES   REMARKS
MARTINSBURG    CLEAR     59  50  72 S6        29.85S
PETERSBURG     PTCLDY    51  48  89 CALM      29.88S
$$




USA.gov is the U.S. government's official web portal to all federal, state and local government web resources and services.